Burlington, VT

4:04 PM EDT on June 27, 2017 (GMT -0400)
Burlington International

Weather History for KBTV - March, 2003

Change the Weather History Date:

Tuesday, March 11, 2003

  Actual Average Record
Temperature  
Mean Temperature 20 °F 29 °F  
Max Temperature 30 °F 38 °F 56 °F (1977)
Min Temperature 10 °F 20 °F -8 °F (1961)
Degree Days  
Heating Degree Days 45 36  
Month to date heating degree days 418  
Since 1 July heating degree days 5828  
Cooling Degree Days 0 0  
Month to date cooling degree days 0  
Year to date cooling degree days 0  
Moisture  
Dew Point 12 °F    
Average Humidity 71    
Maximum Humidity 77    
Minimum Humidity 61    
Precipitation  
Precipitation 0.00 in 0.06 in 0.87 in (1992)
Month to date precipitation 0.74  
Year to date precipitation 4.56  
Snow  
Snow 0.00 in 0.60 in 4.50 in (1993)
Month to date snowfall 6.9  
Since 1 July snowfall 67.7  
Snow Depth 9.00 in    
Sea Level Pressure  
Sea Level Pressure 30.03 in    
Wind  
Wind Speed 10 mph (South)    
Max Wind Speed 21 mph    
Max Gust Speed 26 mph    
Visibility 10 miles    
Events      
T = Trace of Precipitation, MM = Missing Value Source: NWS Daily Summary

Daily Weather History Graph

Daily Weather History Graph

Search for Another Location

Airport or City:

Trip Planner

Search our weather history database for the weather conditions in past years. The results will help you decide how hot, cold, wet, or windy it might be!

Date:

Astronomy

Mar. 11, 2003 Rise Set
Actual Time 6:12 AM EST 5:53 PM EST
Civil Twilight 5:43 AM EST 6:22 PM EST
Nautical Twilight 5:10 AM EST 6:55 PM EST
Astronomical Twilight 4:36 AM EST 7:30 PM EST
Moon 10:22 AM EST (3/11) 1:40 AM EST (3/11)
Length of Visible Light 12h 38m
Length of Day
11h 40m
First Quarter, 54% of the Moon is Illuminated
Mar 11
First Quarter
Mar 18
Full
Mar 24
Last Quarter
Apr 1
New
Apr 9
First Quarter

Hourly Weather History & Observations

Time (EST) Temp. Windchill Dew Point Humidity Pressure Visibility Wind Dir Wind Speed Gust Speed Precip Events Conditions
12:54 AM 12.0 °F 1.5 °F 3.9 °F 70% 30.11 in 10.0 mi SSW 6.9 mph - N/A   Overcast
1:54 AM 12.0 °F - 5.0 °F 73% 30.12 in 10.0 mi Calm Calm - N/A   Overcast
2:54 AM 10.9 °F - 3.9 °F 73% 30.12 in 10.0 mi Calm Calm - N/A   Partly Cloudy
3:54 AM 10.0 °F 0.4 °F 3.9 °F 76% 30.11 in 10.0 mi SE 5.8 mph - N/A   Partly Cloudy
4:54 AM 10.0 °F 0.4 °F 3.0 °F 73% 30.12 in 10.0 mi SSE 5.8 mph - N/A   Scattered Clouds
5:54 AM 10.0 °F -4.5 °F 3.9 °F 76% 30.12 in 10.0 mi South 11.5 mph - N/A   Partly Cloudy
6:54 AM 10.9 °F -4.7 °F 5.0 °F 77% 30.13 in 10.0 mi South 13.8 mph - N/A   Mostly Cloudy
7:54 AM 12.9 °F -1.6 °F 7.0 °F 77% 30.12 in 10.0 mi South 12.7 mph - N/A   Mostly Cloudy
8:54 AM 15.1 °F -0.1 °F 8.1 °F 74% 30.12 in 10.0 mi South 15.0 mph - N/A   Partly Cloudy
9:54 AM 17.1 °F 1.5 °F 10.9 °F 77% 30.10 in 10.0 mi South 17.3 mph 24.2 mph N/A   Partly Cloudy
10:54 AM 19.0 °F 4.0 °F 12.9 °F 77% 30.08 in 10.0 mi South 17.3 mph 20.7 mph N/A   Clear
11:54 AM 21.0 °F 8.1 °F 14.0 °F 74% 30.05 in 10.0 mi South 13.8 mph - N/A   Clear
12:54 PM 24.1 °F 10.1 °F 16.0 °F 71% 30.02 in 10.0 mi South 18.4 mph 26.5 mph N/A   Partly Cloudy
1:54 PM 26.1 °F 12.0 °F 17.1 °F 69% 29.99 in 10.0 mi South 20.7 mph 26.5 mph N/A   Partly Cloudy
2:54 PM 28.0 °F 15.3 °F 17.1 °F 63% 29.97 in 10.0 mi South 18.4 mph 26.5 mph N/A   Scattered Clouds
3:54 PM 28.0 °F 14.9 °F 18.0 °F 66% 29.96 in 10.0 mi South 19.6 mph - N/A   Clear
4:54 PM 28.9 °F 18.2 °F 17.1 °F 61% 29.96 in 10.0 mi South 13.8 mph - N/A   Overcast
5:54 PM 28.9 °F 21.1 °F 18.0 °F 64% 29.96 in 10.0 mi South 8.1 mph - N/A   Overcast
6:54 PM 28.0 °F 18.6 °F 19.0 °F 69% 29.97 in 10.0 mi South 10.4 mph - N/A   Overcast
7:54 PM 28.0 °F 17.0 °F 19.0 °F 69% 29.96 in 10.0 mi South 13.8 mph - N/A   Overcast
8:54 PM 28.9 °F 19.2 °F 18.0 °F 64% 29.96 in 10.0 mi South 11.5 mph - N/A   Overcast
9:54 PM 28.0 °F 20.0 °F 17.1 °F 63% 29.94 in 10.0 mi South 8.1 mph - N/A   Partly Cloudy
10:54 PM 30.0 °F 18.7 °F 19.0 °F 64% 29.90 in 10.0 mi South 16.1 mph - N/A   Overcast
11:54 PM 30.0 °F 17.5 °F 23.0 °F 75% 29.87 in 10.0 mi South 19.6 mph 23.0 mph N/A   Overcast